User: anonymous   Login
Location: Possagno
(45.8500°N, 11.8667°E)
Time: 14:56:17
(UTC+00:00)
Language:

SL-08 R/B - Orbit

View from above orbital plane
View from above orbital plane
View from above satellite
View from above satellite

Ground track
Ground track

The orbit data is extracted from the following two-line orbital elements,

1 27561U 02054C   20224.91901906 +.00000064 +00000-0 +25473-4 0  9992
2 27561 098.4208 012.2585 0045343 220.4569 139.3253 14.55820442939769
Epoch (UTC): 11 August 2020 22:03:23
Eccentricity: 0.0045343
inclination: 98.4208°
perigee height: 674 km
apogee height: 739 km
right ascension of ascending node: 12.2585°
argument of perigee: 220.4569°
revolutions per day: 14.55820442
mean anomaly at epoch: 139.3253°
orbit number at epoch: 93976

The dashed part of the orbit path shows where the satellite is in the earth's shadow,  

DLR